GW4288 Weather Reports


time (UTC)temp
C
wind
direction
speed
KPH
gust
KPH
rain 1hr
cm
rain 24hr
cm
rain mn
cm
humidity
%
barometer
mb
20260508023656 10 150 1.6 3.2 0.00 0.18 0.03 95 1015.9
20260508023155 10 150 0.0 3.2 0.00 0.18 0.03 95 1016.0
20260508022655 10 247 0.0 3.2 0.00 0.18 0.03 95 1015.9
20260508022153 10 219 0.0 0.0 0.00 0.18 0.03 95 1015.7
20260508021719 10 219 0.0 4.8 0.00 0.18 0.03 95 1015.8
20260508021702 10 219 0.0 1.6 0.00 0.18 0.03 95 1015.7
20260508020654 10 234 1.6 4.8 0.00 0.18 0.03 95 1015.7
20260508020152 10 266 0.0 4.8 0.00 0.18 0.03 95 1015.8
20260508015653 10 252 3.2 4.8 0.00 0.18 0.03 95 1016.0
20260508015152 10 261 1.6 4.8 0.00 0.18 0.03 95 1015.9
20260508014652 10 273 3.2 4.8 0.00 0.18 0.03 95 1015.9
20260508014153 10 266 0.0 4.8 0.00 0.18 0.03 95 1015.8
20260508013653 10 266 1.6 3.2 0.00 0.18 0.03 95 1015.8
20260508013153 10 266 3.2 3.2 0.00 0.18 0.03 95 1015.7
20260508012652 10 266 0.0 3.2 0.00 0.18 0.03 95 1015.5
20260508012153 10 266 0.0 3.2 0.00 0.18 0.03 95 1015.7
20260508011653 10 266 1.6 3.2 0.00 0.18 0.03 95 1015.6
20260508011153 11 266 0.0 0.0 0.00 0.18 0.03 95 1015.6
20260508010653 11 266 0.0 1.6 0.00 0.18 0.03 95 1015.5
20260508010153 11 266 0.0 3.2 0.00 0.18 0.03 95 1015.5
20260508005945 11 266 0.0 4.8 0.00 0.18 0.03 95 1015.6
20260508005153 11 266 3.2 4.8 0.00 0.18 0.03 95 1015.6
20260508004937 11 266 0.0 1.6 0.00 0.18 0.03 95 1015.6
20260508004152 11 266 0.0 1.6 0.00 0.18 0.03 95 1015.8
20260508003653 11 266 0.0 1.6 0.00 0.18 0.03 95 1015.6
20260508003422 11 266 0.0 1.6 0.00 0.18 0.03 95 1015.8
20260508002700 11 266 0.0 4.8 0.00 0.18 0.03 95 1015.6
20260508002153 11 266 0.0 4.8 0.00 0.18 0.03 95 1015.7
20260508001653 11 266 0.0 4.8 0.00 0.18 0.03 95 1015.6
20260508001152 11 266 1.6 1.6 0.00 0.18 0.03 95 1015.8
20260508000652 11 266 0.0 0.0 0.00 0.18 0.03 95 1015.7
20260508000152 11 266 0.0 0.0 0.00 0.18 0.03 95 1015.6
20260507235653 11 266 0.0 0.0 0.00 0.18 0.03 95 1015.7
20260507235152 11 266 0.0 0.0 0.00 0.18 0.03 95 1015.7
20260507234653 11 266 0.0 0.0 0.00 0.18 0.03 95 1015.7
20260507234215 11 266 0.0 1.6 0.00 0.18 0.03 95 1015.5
20260507234205 11 266 0.0 1.6 0.00 0.18 0.03 95 1015.5
20260507233153 11 266 0.0 1.6 0.00 0.18 0.03 95 1015.5
20260507232938 11 266 0.0 1.6 0.00 0.18 0.03 95 1015.5
20260507232153 11 266 0.0 0.0 0.00 0.18 0.03 95 1015.5
20260507231652 11 266 0.0 0.0 0.00 0.18 0.03 95 1015.4
20260507231153 11 266 0.0 1.6 0.00 0.18 0.03 95 1015.4
20260507230653 11 266 0.0 3.2 0.00 0.18 0.03 95 1015.4
20260507230153 11 266 1.6 3.2 0.03 0.18 0.03 95 1015.4
20260507225653 11 266 0.0 0.0 0.03 0.18 0.03 95 1015.6
20260507225152 11 266 0.0 0.0 0.05 0.18 0.03 96 1015.6
20260507224651 11 266 0.0 0.0 0.08 0.18 0.03 96 1015.5
20260507224143 11 266 0.0 0.0 0.10 0.18 0.03 96 1015.6
20260507223643 11 266 0.0 0.0 0.13 0.18 0.03 96 1015.8
20260507223145 11 266 0.0 1.6 0.13 0.18 0.03 96 1015.8
20260507222645 11 266 0.0 3.2 0.13 0.18 0.03 96 1015.9
20260507222424 11 266 0.0 3.2 0.18 0.18 0.03 96 1015.6
20260507221644 11 266 0.0 3.2 0.18 0.18 0.03 96 1015.9
20260507221144 11 266 1.6 3.2 0.18 0.18 0.03 96 1015.9
20260507220643 11 266 3.2 3.2 0.18 0.18 0.03 96 1015.9
20260507220144 12 230 1.6 1.6 0.15 0.15 0.00 96 1015.9
20260507215644 12 229 0.0 0.0 0.15 0.15 0.15 96 1015.8
20260507215143 12 229 0.0 3.2 0.13 0.13 0.13 96 1015.4
20260507214643 12 229 0.0 3.2 0.10 0.10 0.10 96 1015.6
20260507214210 12 229 0.0 0.0 0.05 0.05 0.05 96 1015.6
20260507214158 12 229 0.0 0.0 0.08 0.08 0.08 96 1015.6
20260507213420 12 230 0.0 1.6 0.05 0.05 0.05 95 1015.7
20260507212643 12 230 0.0 3.2 0.05 0.05 0.05 94 1015.5
20260507212142 12 230 1.6 3.2 0.00 0.00 0.00 93 1015.7
20260507211925 12 135 0.0 1.6 0.00 0.00 0.00 91 1015.4
20260507211143 13 135 0.0 1.6 0.00 0.00 0.00 90 1015.4
20260507210642 13 135 0.0 3.2 0.00 0.00 0.00 89 1015.2
20260507210143 13 135 1.6 4.8 0.00 0.00 0.00 89 1015.3
20260507205928 13 246 3.2 4.8 0.00 0.00 0.00 88 1015.2
20260507205430 13 105 0.0 0.0 0.00 0.00 0.00 87 1015.2
20260507204645 12 105 0.0 0.0 0.00 0.00 0.00 87 1015.0
20260507204418 12 105 0.0 0.0 0.00 0.00 0.00 87 1015.1
20260507203643 13 105 0.0 1.6 0.00 0.00 0.00 87 1015.1
20260507203143 12 105 0.0 1.6 0.00 0.00 0.00 86 1014.9
20260507202930 12 105 0.0 1.6 0.00 0.00 0.00 87 1014.8
20260507202142 12 105 0.0 1.6 0.00 0.00 0.00 87 1014.8
20260507201642 12 105 0.0 1.6 0.00 0.00 0.00 86 1014.8
20260507201418 13 105 0.0 0.0 0.00 0.00 0.00 86 1014.6
20260507200643 13 105 0.0 0.0 0.00 0.00 0.00 85 1014.8
20260507200419 13 105 0.0 1.6 0.00 0.00 0.00 85 1014.7
20260507195643 13 105 0.0 3.2 0.00 0.00 0.00 84 1014.5
20260507195143 13 105 1.6 3.2 0.00 0.00 0.00 82 1014.5
20260507194642 13 105 0.0 0.0 0.00 0.00 0.00 83 1014.5
20260507194142 13 105 0.0 0.0 0.00 0.00 0.00 86 1014.3
20260507193643 12 105 0.0 0.0 0.00 0.00 0.00 85 1014.4
20260507193145 12 105 0.0 4.8 0.00 0.00 0.00 85 1014.4
20260507192645 12 105 1.6 4.8 0.00 0.00 0.00 85 1014.4
20260507192144 12 100 0.0 0.0 0.00 0.00 0.00 84 1014.3
20260507191645 12 100 0.0 0.0 0.00 0.00 0.00 84 1014.2
20260507191145 12 100 0.0 1.6 0.00 0.00 0.00 85 1014.2
20260507190645 12 88 0.0 3.2 0.00 0.00 0.00 84 1014.2
20260507190145 12 88 3.2 3.2 0.00 0.00 0.00 83 1014.1
20260507185645 12 63 0.0 3.2 0.00 0.00 0.00 83 1014.1
20260507185148 12 97 0.0 3.2 0.00 0.00 0.00 83 1014.0
20260507184645 12 99 3.2 4.8 0.00 0.00 0.00 83 1013.6
20260507184145 12 94 3.2 4.8 0.00 0.00 0.00 84 1013.4
20260507183645 12 101 3.2 4.8 0.00 0.00 0.00 83 1013.5
20260507183145 12 94 4.8 4.8 0.00 0.00 0.00 83 1013.3
20260507182644 12 98 3.2 4.8 0.00 0.00 0.00 83 1013.2
20260507182419 12 104 4.8 4.8 0.00 0.00 0.00 83 1013.4
20260507181644 12 106 3.2 4.8 0.00 0.00 0.00 82 1013.1
20260507181145 12 99 3.2 4.8 0.00 0.00 0.00 82 1013.3
20260507180935 12 102 4.8 4.8 0.00 0.00 0.00 82 1013.1
20260507180144 13 89 4.8 4.8 0.00 0.00 0.00 81 1012.9
20260507175645 13 104 4.8 4.8 0.00 0.00 0.00 81 1012.8
20260507175419 13 117 3.2 4.8 0.00 0.00 0.00 80 1012.9
20260507174645 14 107 3.2 4.8 0.00 0.00 0.00 78 1012.6
20260507174416 14 105 4.8 4.8 0.00 0.00 0.00 77 1012.7
20260507173645 15 93 3.2 3.2 0.00 0.00 0.00 76 1012.6
20260507173144 15 116 3.2 3.2 0.00 0.00 0.00 74 1012.5
20260507172645 15 121 1.6 3.2 0.00 0.00 0.00 72 1012.5
20260507172422 16 158 1.6 4.8 0.00 0.00 0.00 71 1012.5
20260507171929 17 66 3.2 6.4 0.00 0.00 0.00 61 1012.5
20260507171145 17 87 0.0 6.4 0.00 0.00 0.00 65 1012.5
20260507170646 17 112 1.6 4.8 0.00 0.00 0.00 68 1012.4
20260507170145 17 93 1.6 3.2 0.00 0.00 0.00 65 1012.4
20260507165644 18 84 1.6 11.3 0.00 0.00 0.00 60 1012.2
20260507165145 18 78 6.4 11.3 0.00 0.00 0.00 59 1012.4
20260507164645 18 106 1.6 16.1 0.00 0.00 0.00 60 1012.3
20260507164145 18 244 1.6 16.1 0.00 0.00 0.00 60 1012.3
20260507163644 18 77 9.7 22.5 0.00 0.00 0.00 60 1012.3
20260507163418 18 135 0.0 22.5 0.00 0.00 0.00 61 1012.3
20260507162645 19 94 3.2 9.7 0.00 0.00 0.00 59 1012.2
20260507162144 19 171 1.6 9.7 0.00 0.00 0.00 58 1012.1
20260507161645 18 67 3.2 20.9 0.00 0.00 0.00 59 1012.2
20260507161144 18 51 0.0 20.9 0.00 0.00 0.00 60 1012.4
20260507160644 18 30 3.2 11.3 0.00 0.00 0.00 60 1012.4
20260507160144 18 136 3.2 20.9 0.00 0.00 0.00 61 1012.4
20260507155644 18 95 11.3 20.9 0.00 0.00 0.00 61 1012.3
20260507155145 18 296 1.6 9.7 0.00 0.00 0.00 60 1012.4
20260507154646 18 104 0.0 6.4 0.00 0.00 0.00 60 1012.3
20260507154145 17 35 0.0 9.7 0.00 0.00 0.00 62 1012.3
20260507153644 17 247 1.6 9.7 0.00 0.00 0.00 61 1012.5
20260507153419 17 96 0.0 12.9 0.00 0.00 0.00 61 1012.5
20260507152712 17 59 6.4 9.7 0.00 0.00 0.00 61 1012.4
20260507152655 17 95 0.0 12.9 0.00 0.00 0.00 61 1012.4
20260507151643 17 105 3.2 11.3 0.00 0.00 0.00 63 1012.6
20260507151143 17 40 1.6 11.3 0.00 0.00 0.00 61 1012.5
20260507150720 17 341 1.6 11.3 0.00 0.00 0.00 62 1012.4
20260507150655 17 95 3.2 11.3 0.00 0.00 0.00 62 1012.4
20260507145630 17 19 3.2 9.7 0.00 0.00 0.00 62 1012.8
20260507145126 17 55 6.4 11.3 0.00 0.00 0.00 62 1012.6
20260507144622 17 306 6.4 12.9 0.00 0.00 0.00 60 1012.6
20260507144119 18 306 8.0 14.5 0.00 0.00 0.00 59 1012.7
20260507143617 17 55 6.4 14.5 0.00 0.00 0.00 61 1012.7
20260507143109 17 55 3.2 12.9 0.00 0.00 0.00 62 1012.7
20260507142603 18 47 1.6 9.7 0.00 0.00 0.00 62 1012.5
20260507142103 18 78 4.8 6.4 0.00 0.00 0.00 61 1012.5
20260507141600 18 29 0.0 6.4 0.00 0.00 0.00 61 1012.6
20260507141336 18 330 3.2 12.9 0.00 0.00 0.00 60 1012.6
20260507140829 18 30 6.4 12.9 0.00 0.00 0.00 60 1012.6
20260507140110 18 92 4.8 12.9 0.00 0.00 0.00 61 1012.6
20260507135554 18 70 3.2 11.3 0.00 0.00 0.00 61 1012.6
20260507135056 18 73 4.8 14.5 0.00 0.00 0.00 60 1012.5
20260507134553 18 65 8.0 14.5 0.00 0.00 0.00 60 1012.4
20260507134057 18 324 6.4 11.3 0.00 0.00 0.00 59 1012.8
20260507133619 18 68 4.8 17.7 0.00 0.00 0.00 60 1012.5
20260507133610 18 141 8.0 17.7 0.00 0.00 0.00 60 1012.6
20260507132554 18 297 6.4 12.9 0.00 0.00 0.00 61 1012.5
20260507132057 18 330 4.8 14.5 0.00 0.00 0.00 60 1012.5
20260507131843 18 89 6.4 14.5 0.00 0.00 0.00 62 1012.6
20260507131057 18 85 4.8 11.3 0.00 0.00 0.00 61 1012.4
20260507130554 18 100 6.4 22.5 0.00 0.00 0.00 62 1012.6
20260507130110 18 101 3.2 22.5 0.00 0.00 0.00 63 1012.5
20260507125554 18 53 9.7 17.7 0.00 0.00 0.00 63 1012.8
20260507125057 18 15 3.2 17.7 0.00 0.00 0.00 63 1012.7
20260507124554 19 315 9.7 17.7 0.00 0.00 0.00 64 1012.6
20260507124335 19 253 1.6 9.7 0.00 0.00 0.00 66 1012.5
20260507123554 18 132 3.2 14.5 0.00 0.00 0.00 70 1012.6
20260507123057 18 114 11.3 14.5 0.00 0.00 0.00 74 1012.5
20260507122554 17 117 3.2 12.9 0.00 0.00 0.00 74 1012.5
20260507122057 17 101 6.4 16.1 0.00 0.00 0.00 74 1012.5
20260507121554 18 111 6.4 16.1 0.00 0.00 0.00 73 1012.6
20260507121100 17 112 9.7 14.5 0.00 0.00 0.00 73 1012.7
20260507120828 17 95 6.4 14.5 0.00 0.00 0.00 76 1012.5
20260507120110 17 108 9.7 14.5 0.00 0.00 0.00 77 1012.7
20260507115555 17 111 6.4 14.5 0.00 0.00 0.00 75 1012.8
20260507115058 17 96 6.4 11.3 0.00 0.00 0.00 74 1012.9
20260507114556 17 129 1.6 4.8 0.00 0.00 0.00 74 1012.7
20260507114058 17 60 0.0 4.8 0.00 0.00 0.00 73 1012.8
20260507113557 17 89 1.6 9.7 0.00 0.00 0.00 73 1012.9
20260507113058 17 358 0.0 9.7 0.00 0.00 0.00 73 1012.9
20260507112554 17 93 3.2 9.7 0.00 0.00 0.00 73 1013.0
20260507112058 17 52 3.2 11.3 0.00 0.00 0.00 73 1012.9
20260507111556 17 37 0.0 12.9 0.00 0.00 0.00 73 1012.9
20260507111149 17 276 4.8 14.5 0.00 0.00 0.00 72 1013.0
20260507111129 17 19 4.8 14.5 0.00 0.00 0.00 72 1012.8
20260507110106 17 41 8.0 14.5 0.00 0.00 0.00 72 1012.9
20260507105554 17 50 1.6 14.5 0.00 0.00 0.00 72 1012.9
20260507105056 17 329 11.3 14.5 0.00 0.00 0.00 71 1012.9
20260507104555 17 309 1.6 16.1 0.00 0.00 0.00 70 1012.6
20260507104058 17 80 4.8 16.1 0.00 0.00 0.00 70 1012.5
20260507103555 18 297 1.6 16.1 0.00 0.00 0.00 68 1012.6
20260507103058 18 332 11.3 16.1 0.00 0.00 0.00 68 1012.6
20260507102553 18 231 3.2 16.1 0.00 0.00 0.00 67 1012.7
20260507102104 18 283 9.7 12.9 0.00 0.00 0.00 66 1012.6
20260507101557 18 53 1.6 6.4 0.00 0.00 0.00 65 1012.6
20260507101052 18 65 4.8 12.9 0.00 0.00 0.00 65 1012.4
20260507100552 18 329 4.8 12.9 0.00 0.00 0.00 66 1012.4
20260507100052 18 65 6.4 9.7 0.00 0.00 0.00 68 1012.3
20260507095552 18 351 3.2 9.7 0.00 0.00 0.00 66 1012.3
20260507095334 18 74 3.2 17.7 0.00 0.00 0.00 68 1012.3
20260507094551 18 80 4.8 17.7 0.00 0.00 0.00 67 1012.2
20260507094052 18 326 4.8 12.9 0.00 0.00 0.00 68 1012.3
20260507093555 19 70 6.4 12.9 0.00 0.00 0.00 66 1012.2
20260507093055 19 138 3.2 12.9 0.00 0.00 0.00 65 1012.3
20260507092555 18 29 0.0 12.9 0.00 0.00 0.00 68 1012.1
20260507092055 18 93 6.4 11.3 0.00 0.00 0.00 67 1012.1
20260507091542 18 54 3.2 16.1 0.00 0.00 0.00 69 1012.2
20260507091042 17 29 6.4 16.1 0.00 0.00 0.00 70 1012.3
20260507090545 18 88 3.2 11.3 0.00 0.00 0.00 70 1012.0
20260507090046 18 86 8.0 12.9 0.00 0.00 0.00 67 1011.9
20260507085542 17 96 1.6 12.9 0.00 0.00 0.00 71 1012.2
20260507085042 17 325 6.4 14.5 0.00 0.00 0.00 70 1012.1
20260507084557 18 87 11.3 16.1 0.00 0.00 0.00 72 1011.9
20260507084043 17 81 3.2 16.1 0.00 0.00 0.00 72 1012.0
20260507083542 17 123 9.7 14.5 0.00 0.00 0.00 73 1011.9
20260507083042 18 302 1.6 14.5 0.00 0.00 0.00 71 1011.8
20260507082817 17 34 3.2 22.5 0.00 0.00 0.00 72 1011.7
20260507082044 17 44 6.4 22.5 0.00 0.00 0.00 73 1011.7
20260507081542 17 65 8.0 16.1 0.00 0.00 0.00 72 1011.7
20260507081042 17 9 1.6 16.1 0.00 0.00 0.00 73 1011.7
20260507080542 17 39 11.3 16.1 0.00 0.00 0.00 73 1011.7
20260507080044 17 3 3.2 14.5 0.00 0.00 0.00 73 1011.6
20260507075542 16 80 4.8 16.1 0.00 0.00 0.00 73 1011.8
20260507075041 16 98 3.2 16.1 0.00 0.00 0.00 74 1011.7
20260507074543 16 331 9.7 14.5 0.00 0.00 0.00 75 1011.6
20260507074045 16 76 4.8 14.5 0.00 0.00 0.00 74 1011.8
20260507073542 16 257 1.6 14.5 0.00 0.00 0.00 75 1011.7
20260507073043 16 98 4.8 14.5 0.00 0.00 0.00 76 1011.6
20260507072542 16 351 4.8 11.3 0.00 0.00 0.00 75 1011.7
20260507072042 17 133 1.6 16.1 0.00 0.00 0.00 74 1011.7
20260507071542 16 74 3.2 16.1 0.00 0.00 0.00 76 1011.7
20260507071042 15 128 4.8 11.3 0.00 0.00 0.00 78 1011.6
20260507070543 15 43 3.2 9.7 0.00 0.00 0.00 78 1011.4
20260507070042 16 110 1.6 6.4 0.00 0.00 0.00 78 1011.5
20260507065542 15 326 3.2 22.5 0.00 0.00 0.00 79 1011.4
20260507065042 15 87 1.6 22.5 0.00 0.00 0.00 79 1011.5
20260507064541 15 345 1.6 17.7 0.00 0.00 0.00 80 1011.6
20260507064041 15 99 11.3 17.7 0.00 0.00 0.00 80 1011.2
20260507063543 15 75 6.4 11.3 0.00 0.00 0.00 79 1011.1
20260507063045 15 18 1.6 14.5 0.00 0.00 0.00 79 1011.3
20260507062542 15 278 8.0 14.5 0.00 0.00 0.00 79 1011.0
20260507062043 15 55 3.2 14.5 0.00 0.00 0.00 80 1010.9
20260507061541 15 77 6.4 16.1 0.00 0.00 0.00 80 1011.0
20260507061042 15 38 1.6 16.1 0.00 0.00 0.00 80 1010.9
20260507060543 15 42 4.8 14.5 0.00 0.00 0.00 80 1010.9
20260507060042 15 101 6.4 12.9 0.00 0.00 0.00 80 1011.0
20260507055542 15 33 0.0 12.9 0.00 0.00 0.00 80 1010.9
20260507055042 15 112 3.2 11.3 0.00 0.00 0.00 80 1011.1
20260507054542 15 78 0.0 14.5 0.00 0.00 0.00 80 1010.9
20260507054042 15 97 3.2 14.5 0.00 0.00 0.00 80 1010.7
20260507053542 15 87 3.2 11.3 0.00 0.00 0.00 80 1010.7
20260507053043 15 11 1.6 6.4 0.00 0.00 0.00 80 1010.7
20260507052542 15 103 1.6 9.7 0.00 0.00 0.00 80 1010.5
20260507052042 15 236 3.2 9.7 0.00 0.00 0.00 80 1010.5
20260507051542 15 90 3.2 4.8 0.00 0.00 0.00 79 1010.2
20260507051327 15 190 1.6 11.3 0.00 0.00 0.00 80 1010.3
20260507050541 15 329 4.8 11.3 0.00 0.00 0.00 80 1010.1
20260507050042 15 66 4.8 14.5 0.00 0.00 0.00 80 1010.0
20260507045542 15 174 4.8 14.5 0.00 0.00 0.00 80 1010.0
20260507045041 15 106 3.2 11.3 0.00 0.00 0.00 81 1009.9
20260507044820 15 137 3.2 11.3 0.00 0.00 0.00 81 1009.8
20260507044041 15 84 3.2 12.9 0.00 0.00 0.00 81 1009.8
20260507043818 15 78 8.0 12.9 0.00 0.00 0.00 81 1009.7
20260507043325 15 342 3.2 4.8 0.00 0.00 0.00 81 1009.8
20260507042542 15 342 0.0 9.7 0.00 0.00 0.00 81 1009.7
20260507042047 15 92 3.2 14.5 0.00 0.00 0.00 81 1009.7
20260507041544 15 126 3.2 16.1 0.00 0.00 0.00 81 1009.8
20260507041047 15 96 9.7 16.1 0.00 0.00 0.00 81 1009.6
20260507040544 15 73 6.4 12.9 0.00 0.00 0.00 81 1009.6
20260507040340 15 89 1.6 9.7 0.00 0.00 0.00 81 1009.5
20260507035544 15 157 3.2 9.7 0.00 0.00 0.00 80 1009.5
20260507035328 15 138 3.2 9.7 0.00 0.00 0.00 80 1009.2
20260507034544 15 83 1.6 6.4 0.00 0.00 0.00 80 1009.3
20260507034047 15 112 4.8 14.5 0.00 0.00 0.00 80 1009.1
20260507033545 15 270 8.0 14.5 0.00 0.00 0.00 80 1009.0
20260507033047 15 33 0.0 11.3 0.00 0.00 0.00 80 1009.0
20260507032544 15 119 0.0 11.3 0.00 0.00 0.00 80 1008.7
20260507032330 15 142 1.6 16.1 0.00 0.00 0.00 80 1008.8
20260507031544 15 60 4.8 20.9 0.00 0.00 0.00 79 1008.8
20260507031047 15 118 4.8 20.9 0.00 0.00 0.00 79 1008.7
20260507030544 15 63 16.1 17.7 0.00 0.00 0.00 79 1008.6
20260507030059 15 108 8.0 11.3 0.00 0.00 0.00 79 1008.5
20260507025544 15 112 3.2 11.3 0.00 0.00 0.00 79 1008.7
20260507025323 15 21 0.0 11.3 0.00 0.00 0.00 78 1008.6
20260507024544 15 54 3.2 11.3 0.00 0.00 0.00 78 1008.6
20260507024048 15 125 1.6 11.3 0.00 0.00 0.00 79 1008.6